Flag for U.S.A. Weather past 2 weeks in South Bend, Indiana, U.S.A.

Now
31 °F

Clear.


Feels Like: 23 °F
Forecast: 13 / 31 °F
Wind: 8 mph from Northwest

Location: Michiana Regional Airport

Current Time: Mar 4, 2015 at 2:40:51 AM

Latest Report: Mar 4, 2015 at 1:54 AM


Visibility: 10 mi

Pressure: 29.88 "Hg

Humidity: 79%

Dew point: 25 °F

Location of South BendLocation

Historic Weather in South Bend — Graph

°F

South Bend temperature yesterday

Maximum temperature yesterday: 36 °F (at 4:54 PM)
Minimum temperature yesterday: 25 °F (at 6:54 AM)
Average temperature yesterday: 31 °F

Past Weeks' High & Low Weather Summary

 TemperatureHumidityPressure
High36 °F (Mar 3, 4:54 PM)100% (Mar 3, 10:54 PM)30.80 "Hg (Mar 3, 10:54 PM)
Low-8 °F (Feb 20, 3:54 AM)43% (Feb 27, 3:54 PM)29.67 "Hg (Mar 3, 2:54 PM)
Average15 °F70%30.24 "Hg
* Reported Feb 17 12:54 AM — Mar 4 12:54 AM, South Bend, Weather by CustomWeather, © 2015

Note: Actual official high and low records may vary slightly from our data, if they occured in-between our weather recording intervals... More about our weather records

Advertising

South Bend weather history for previous 24 hours

 ConditionsComfort  
Time TempWeatherWind HumidityBarometerVisibility
12:54 AM
Wed, Mar 4
32 °FPassing clouds.15 mphN/A29.87 "Hg10 mi
11:54 PM
Tue, Mar 3
34 °FOvercast.15 mphN/A29.86 "Hg10 mi
10:54 PM34 °FOvercast.9 mph100%29.86 "Hg10 mi
9:54 PM34 °FMostly cloudy.13 mphN/A29.83 "Hg10 mi
8:54 PM36 °FMostly cloudy.13 mphN/A29.81 "Hg10 mi
7:54 PM36 °FOvercast.14 mphN/A29.79 "Hg10 mi
6:54 PM36 °FOvercast.15 mphN/A29.74 "Hg10 mi
5:54 PM36 °FOvercast.23 mphN/A29.73 "Hg10 mi
4:54 PM36 °FLow clouds.16 mphN/A29.69 "Hg8 mi
3:54 PM35 °FFog.14 mph92%29.67 "Hg1 mi
2:54 PM35 °FFog.15 mph88%29.67 "Hg1 mi
1:54 PM34 °FFog.13 mph88%29.69 "Hg2 mi
12:54 PM33 °FLight rain. Fog.18 mph85%29.71 "Hg2 mi
12:04 PM31 °FLight freezing rain. Ice fog.15 mph85%29.73 "Hg2 mi
11:54 AM30 °FIce fog.15 mph89%29.75 "Hg2 mi
10:54 AM29 °FLight freezing rain. Ice fog.18 mph85%29.80 "Hg2 mi
9:54 AM28 °FLight snow. Overcast.16 mph81%29.92 "Hg2 mi
8:54 AM27 °FLight freezing rain. Overcast.16 mph81%29.98 "Hg4 mi
7:54 AM25 °FMostly cloudy.14 mph78%30.02 "Hg7 mi
6:54 AM25 °FLight snow. Overcast.14 mph78%30.08 "Hg2 mi
5:56 AM26 °FLight snow. Overcast.12 mph69%30.10 "Hg5 mi
4:54 AM26 °FLight snow. Mostly cloudy.14 mph63%30.12 "Hg9 mi
3:54 AM26 °FOvercast.9 mph63%30.20 "Hg10 mi
2:54 AM26 °FOvercast.10 mph63%30.25 "Hg10 mi
Weather by CustomWeather, © 2015

See weather overviewHow to use our weather pages